[Iaude] MPEC E25: 2024 EL [a=1.17,e=0.36,i=5.2,H=24.9]
    mpec at cfa.harvard.edu 
    mpec at cfa.harvard.edu
       
    Sun Mar  3 14:43:05 EST 2024
    
    
  
M.P.E.C. 2024-E25                                 Issued 2024 March 3, 19:40 UT
     The Minor Planet Electronic Circulars contain information on unusual
         minor planets, routine data on comets and natural satellites,
         and occasional editorial announcements.  They are published
    on behalf of Division F of the International Astronomical Union by the
          Minor Planet Center, Smithsonian Astrophysical Observatory,
                          Cambridge, MA 02138, U.S.A.
			  
             Prepared using the Tamkin Foundation Computer Network
                              MPC at CFA.HARVARD.EDU
            URL https://www.minorplanetcenter.net/    ISSN 1523-6714
                                    2024 EL                                     
Observations:
     K24E00L*1C2024 03 02.42314912 48 07.945+33 41 21.16         19.34GVEE025703
     K24E00L 1C2024 03 02.42543312 48 04.399+33 40 47.06         19.15GVEE025703
     K24E00L 1C2024 03 02.42770012 48 00.731+33 40 12.04         18.64GVEE025703
     K24E00L 1C2024 03 02.42996712 47 57.023+33 39 36.29               VEE025703
     K24E00L KC2024 03 03.08073512 33 00.480+30 55 56.17         19.0 GVEE025J95
     K24E00L KC2024 03 03.08508112 32 54.718+30 54 53.57         18.7 GVEE025J95
     K24E00L KC2024 03 03.08625812 32 53.160+30 54 36.79         18.9 GVEE025J95
     K24E00L KC2024 03 03.08737212 32 51.696+30 54 20.84         18.7 GVEE025J95
     K24E00L KB2024 03 03.27858 12 29 02.412+30 09 55.76         19.3 GVEE025734
     K24E00L KB2024 03 03.28162 12 28 58.469+30 09 13.79         19.1 GVEE025734
     K24E00L KB2024 03 03.28468 12 28 54.624+30 08 30.77         19.2 GVEE025734
     K24E00L KC2024 03 03.30669912 28 25.02 +30 03 27.0          19.3 GVEE025H21
     K24E00L KC2024 03 03.30862912 28 22.57 +30 03 00.1          19.3 GVEE025H21
     K24E00L KC2024 03 03.31056012 28 20.14 +30 02 33.4          19.1 GVEE025H21
     K24E00L 1C2024 03 03.42446212 26 03.109+29 36 46.30         19.60GVEE025703
     K24E00L 1C2024 03 03.42682612 26 00.064+29 36 12.31         19.21GVEE025703
     K24E00L 1C2024 03 03.42915712 25 57.385+29 35 40.34         19.03GVEE025703
     K24E00L mC2024 03 03.52833012 23 58.578+29 12 46.19         19.84GVEE025I52
     K24E00L mC2024 03 03.52850012 23 58.369+29 12 43.42         20.10GVEE025I52
     K24E00L mC2024 03 03.52866912 23 58.225+29 12 41.22         19.66GVEE025I52
     K24E00L KB2024 03 03.64177 12 22 07.88 +28 47 54.5          19.5 GXEE025Q06
     K24E00L KB2024 03 03.64771 12 22 01.04 +28 46 37.1          19.0 GXEE025Q06
     K24E00L KB2024 03 03.65357 12 21 54.26 +28 45 20.7          19.2 GXEE025Q06
Observer details:
703 Catalina Sky Survey.  Observer J. B. Fazekas.  Measurers T. Beuden, V. F.
    Carvajal, D. Fay, J. B. Fazekas, D. C. Fuls, A. R. Gibbs, A. D. Grauer, H.
    Groeller, J. K. Hogan, R. A. Kowalski, S. M. Larson, G. J. Leonard, D.
    Rankin, R. L. Seaman, F. C. Shelly, K. W. Wierzchos.  0.68-m Schmidt + 10K
    CCD.
734 Farpoint Observatory, Eskridge.  Observers D. Cromer, G. Hug, D. Goodin,
    R. Valentine.  Measurer D. Cromer.  0.69-m f/3.54 reflector + CMO.
H21 Astronomical Research Observatory, Westfield.  Observer R. Holmes.
    Measurers T. Linder, R. Holmes, L. Horn.  0.76-m f/3.0 astrograph + CCD.
I52 Steward Observatory, Mt. Lemmon Station.  Observers T. Beuden, J. K.
    Hogan.  Measurers T. Beuden, V. F. Carvajal, D. Fay, J. B. Fazekas, D. C.
    Fuls, A. R. Gibbs, A. D. Grauer, H. Groeller, J. K. Hogan, R. A. Kowalski,
    S. M. Larson, G. J. Leonard, D. Rankin, R. L. Seaman, F. C. Shelly, K. W.
    Wierzchos.  1.0-m prime focus + CCD.
J95 Great Shefford.  Observer P. Birtwhistle.  0.41-m f/6.3 Schmidt-Cassegrain
    + CCD.
Q06 Tarui Observatory, Tarui.  Observer H. Watanabe.  0.35-m f/1.9 Schmidt-
    Cassegrain + CMO.
Orbital elements:
2024 EL                                                  Earth MOID = 0.0193 AU
Epoch 2024 Mar. 31.0 TT = JDT 2460400.5                 Veres                   
M  72.07073              (2000.0)            P               Q                  
n   0.77614085     Peri.   75.42152     +0.31043281     -0.95057898             
a   1.1726697      Node   356.47838     +0.83348897     +0.27500467             
e   0.3612642      Incl.    5.20659     +0.45708600     +0.14412505             
P   1.27           H   24.99          G   0.15           U   7                  
Residuals in seconds of arc
240302 703  1.5-  1.8-    240303 734  0.7+  0.7+    240303 703  1.3+  0.5-
240302 703  0.2+  0.1+    240303 734  0.3-  0.6+    240303 I52  0.2-  0.2+
240302 703  0.0   0.7+    240303 734  0.0   0.3-    240303 I52  0.4-  0.2-
240302 703  0.7-  0.6+    240303 H21  0.0   0.1+    240303 I52  0.3+  0.1-
240303 J95  0.1+  0.1+    240303 H21  0.2-  0.1-    240303 Q06  0.1-  0.2-
240303 J95  0.0   0.2-    240303 H21  0.1-  0.0     240303 Q06  0.6+  0.1+
240303 J95  0.1+  0.1-    240303 703  0.8+  0.6+    240303 Q06  0.7+  0.4+
240303 J95  0.2+  0.0     240303 703  1.0-  0.7-
Ephemeris:
2024 EL                  a,e,i = 1.17, 0.36, 5                   q = 0.7490
Date    TT    R. A. (2000) Decl.     Delta      r    Elong.  Phase     V
2024 02 02    21 52 04.2 +09 26 53   0.1595  0.8504    29.6   145.1    28.2
...
2024 02 17    21 09 14.9 +22 52 32   0.06819 0.9346    37.2   140.2    25.9
...
2024 02 25    18 26 50.8 +46 23 12   0.03332 0.9830    77.6   100.5    21.2
...
2024 03 02    12 59 35.3 +35 34 02   0.03765 1.0199   139.3    39.3    19.5
2024 03 03    12 34 44.5 +31 16 45   0.04144 1.0261   146.3    32.4    19.5
2024 03 04    12 15 54.3 +27 31 46   0.04571 1.0322   152.2    26.6    19.6
...
2024 03 10    11 21 01.1 +14 07 27   0.07697 1.0690   170.0     9.3    20.2
...
2024 03 18    10 57 36.0 +07 08 27   0.1257  1.1174   165.3    13.0    21.5
...
2024 04 02    10 47 59.4 +02 15 25   0.2304  1.2042   149.8    24.7    23.4
M. P. C. Staff               (C) Copyright 2024 MPC           M.P.E.C. 2024-E25
    
    
More information about the Iaude
mailing list